Weather History for Bay City, TX

Change the Weather History Date:

Thursday, December 13, 2012

  Actual Average (KLBX) Record (KLBX)
Temperature  
Mean Temperature 52 °F -  
Max Temperature 70 °F 62 °F 75 °F (2001)
Min Temperature 34 °F 44 °F 28 °F (2010)
Degree Days  
Heating Degree Days 13    
Growing Degree Days 2 (Base 50)    
Moisture  
Dew Point 41 °F    
Average Humidity 68    
Maximum Humidity 100    
Minimum Humidity 36    
Precipitation  
Precipitation 0.00 in - - ()
Sea Level Pressure  
Sea Level Pressure 30.26 in    
Wind  
Wind Speed 4 mph (ENE)    
Max Wind Speed 12 mph    
Max Gust Speed 18 mph    
Visibility 10 miles    
Events      
Averages and records for this station are not official NWS values.
T = Trace of Precipitation, MM = Missing Value Source: NWS Daily Summary

Daily Weather History Graph

Daily Weather History Graph

Search for Another Location

Airport:

Trip Planner

Search our weather history database for the weather conditions in past years. The results will help you decide how hot, cold, wet, or windy it might be!

Date:

Astronomy

Dec. 13, 2012 Rise Set
Actual Time 7:08 AM CST 5:27 PM CST
Civil Twilight 6:42 AM CST 5:53 PM CST
Nautical Twilight 6:12 AM CST 6:22 PM CST
Astronomical Twilight 5:44 AM CST 6:51 PM CST
Moon 7:19 AM CST (12/13) 6:08 PM CST (12/13)
Length of Visible Light 11h 10m
Length of Day
10h 18m
New Moon, 0% of the Moon is Illuminated
Dec 13
New Moon
Dec 19
First Quarter
Dec 28
Full
Jan 4
Last Quarter
Jan 11
New

Hourly Weather History & Observations

Time (CST) Temp. Windchill Dew Point Humidity Pressure Visibility Wind Dir Wind Speed Gust Speed Precip Events Conditions
12:15 AM 41.7 °F - 35.4 °F 78% 30.29 in 10.0 mi Calm Calm - N/A   Clear
12:35 AM 42.8 °F - 36.0 °F 77% 30.28 in 10.0 mi Calm Calm - N/A   Clear
12:55 AM 41.5 °F - 35.2 °F 78% 30.27 in 10.0 mi Calm Calm - N/A   Clear
1:15 AM 38.5 °F - 34.5 °F 86% 30.27 in 10.0 mi Calm Calm - N/A   Clear
1:35 AM 35.6 °F 32.8 °F 33.8 °F 93% 30.27 in 10.0 mi NE 3.5 mph - N/A   Clear
1:55 AM 36.0 °F 31.1 °F 36.0 °F 100% 30.27 in 10.0 mi ENE 5.8 mph - N/A   Clear
2:15 AM 36.3 °F 30.8 °F 36.3 °F 100% 30.27 in 10.0 mi NE 6.9 mph - N/A   Clear
2:35 AM 39.0 °F 34.8 °F 35.8 °F 88% 30.27 in 10.0 mi NE 5.8 mph - N/A   Clear
2:55 AM 40.5 °F 37.3 °F 34.9 °F 80% 30.27 in 10.0 mi NE 4.6 mph - N/A   Clear
3:15 AM 40.5 °F - 34.5 °F 79% 30.27 in 10.0 mi Calm Calm - N/A   Clear
3:35 AM 40.6 °F - 34.2 °F 78% 30.27 in 10.0 mi Calm Calm - N/A   Clear
3:55 AM 40.5 °F - 33.6 °F 77% 30.27 in 10.0 mi Calm Calm - N/A   Clear
4:15 AM 38.8 °F - 33.1 °F 80% 30.27 in 10.0 mi Calm Calm - N/A   Clear
4:35 AM 37.6 °F 34.0 °F 32.7 °F 83% 30.27 in 10.0 mi NNW 4.6 mph - N/A   Clear
4:55 AM 35.8 °F 33.0 °F 32.5 °F 88% 30.27 in 10.0 mi NNW 3.5 mph - N/A   Clear
5:15 AM 34.5 °F 30.4 °F 32.0 °F 90% 30.27 in 10.0 mi North 4.6 mph - N/A   Clear
5:35 AM 35.6 °F 31.7 °F 35.6 °F 100% 30.27 in 10.0 mi North 4.6 mph - N/A   Clear
5:55 AM 36.0 °F 33.3 °F 33.8 °F 92% 30.28 in 10.0 mi NNE 3.5 mph - N/A   Clear
6:15 AM 37.4 °F 33.8 °F 34.2 °F 88% 30.28 in 10.0 mi North 4.6 mph - N/A   Clear
6:35 AM 37.8 °F 34.2 °F 33.8 °F 86% 30.29 in 10.0 mi North 4.6 mph - N/A   Clear
6:55 AM 37.6 °F 33.1 °F 34.2 °F 87% 30.29 in 10.0 mi North 5.8 mph - N/A   Clear
7:15 AM 37.4 °F 34.9 °F 34.3 °F 89% 30.30 in 10.0 mi North 3.5 mph - N/A   Clear
7:35 AM 37.8 °F 34.2 °F 34.7 °F 89% 30.30 in 10.0 mi NNE 4.6 mph - N/A   Clear
7:55 AM 39.4 °F 35.2 °F 35.4 °F 86% 30.31 in 10.0 mi North 5.8 mph - N/A   Clear
8:15 AM 42.4 °F 39.6 °F 37.0 °F 81% 30.31 in 10.0 mi North 4.6 mph - N/A   Clear
8:35 AM 45.9 °F 44.6 °F 39.2 °F 78% 30.31 in 10.0 mi NNE 3.5 mph - N/A   Clear
8:55 AM 48.6 °F - 41.2 °F 76% 30.31 in 10.0 mi NE 10.4 mph - N/A   Clear
9:15 AM 50.9 °F - 43.0 °F 74% 30.32 in 10.0 mi NE 9.2 mph - N/A   Clear
9:35 AM 55.4 °F - 44.6 °F 67% 30.32 in 10.0 mi NE 6.9 mph - N/A   Clear
9:55 AM 57.2 °F - 45.0 °F 64% 30.33 in 10.0 mi ENE 6.9 mph - N/A   Clear
10:15 AM 60.3 °F - 45.5 °F 58% 30.32 in 10.0 mi ENE 8.1 mph - N/A   Clear
10:35 AM 62.4 °F - 45.9 °F 55% 30.32 in 10.0 mi East 11.5 mph 18.4 mph N/A   Clear
10:55 AM 64.2 °F - 46.4 °F 52% 30.32 in 10.0 mi East 10.4 mph - N/A   Clear
11:15 AM 66.0 °F - 46.0 °F 48% 30.31 in 10.0 mi East 10.4 mph - N/A   Clear
11:35 AM 67.5 °F - 43.9 °F 43% 30.30 in 10.0 mi East 10.4 mph - N/A   Clear
11:55 AM 68.7 °F - 41.9 °F 38% 30.30 in 10.0 mi ENE 6.9 mph - N/A   Clear
12:15 PM 69.3 °F - 41.5 °F 37% 30.29 in 10.0 mi ENE 10.4 mph - N/A   Clear
12:35 PM 69.4 °F - 42.4 °F 38% 30.28 in 10.0 mi ESE 8.1 mph - N/A   Clear
12:55 PM 69.4 °F - 43.0 °F 38% 30.27 in 10.0 mi East 8.1 mph - N/A   Clear
1:15 PM 70.3 °F - 43.0 °F 37% 30.26 in 10.0 mi ESE 8.1 mph - N/A   Clear
1:35 PM 70.0 °F - 42.8 °F 37% 30.26 in 10.0 mi SE 6.9 mph - N/A   Clear
1:55 PM 69.6 °F - 42.6 °F 38% 30.25 in 10.0 mi SE 6.9 mph - N/A   Clear
2:15 PM 69.6 °F - 41.5 °F 36% 30.24 in 10.0 mi ESE 5.8 mph - N/A   Clear
2:35 PM 68.4 °F - 41.5 °F 38% 30.24 in 10.0 mi ESE 6.9 mph - N/A   Scattered Clouds
2:55 PM 68.0 °F - 43.7 °F 41% 30.24 in 10.0 mi ESE 10.4 mph - N/A   Mostly Cloudy
3:15 PM 68.2 °F - 45.0 °F 43% 30.24 in 10.0 mi ESE 9.2 mph - N/A   Scattered Clouds
3:35 PM 67.6 °F - 44.2 °F 43% 30.23 in 10.0 mi ESE 8.1 mph - N/A   Clear
3:55 PM 64.9 °F - 43.7 °F 46% 30.23 in 10.0 mi ESE 8.1 mph - N/A   Scattered Clouds
4:15 PM 63.7 °F - 44.4 °F 50% 30.24 in 10.0 mi ESE 8.1 mph - N/A   Mostly Cloudy
5:15 PM 60.8 °F - 46.4 °F 59% 30.23 in 10.0 mi East 8.1 mph - N/A   Overcast
5:35 PM 61.5 °F - 46.8 °F 58% 30.22 in 10.0 mi East 8.1 mph - N/A   Overcast
6:15 PM 60.8 °F - 47.3 °F 61% 30.21 in 10.0 mi East 9.2 mph - N/A   Overcast
6:55 PM 59.9 °F - 46.8 °F 62% 30.22 in 10.0 mi East 9.2 mph - N/A   Overcast
7:15 PM 59.9 °F - 46.9 °F 62% 30.22 in 10.0 mi East 8.1 mph - N/A   Overcast
7:35 PM 59.0 °F - 46.4 °F 63% 30.21 in 10.0 mi East 8.1 mph - N/A   Overcast
7:55 PM 59.4 °F - 47.3 °F 64% 30.21 in 10.0 mi ENE 9.2 mph - N/A   Overcast
8:15 PM 59.4 °F - 47.3 °F 64% 30.22 in 10.0 mi East 5.8 mph - N/A   Overcast
8:35 PM 59.4 °F - 47.5 °F 65% 30.23 in 10.0 mi East 8.1 mph - N/A   Overcast
8:55 PM 59.4 °F - 47.8 °F 66% 30.22 in 10.0 mi ENE 8.1 mph - N/A   Overcast
9:15 PM 59.2 °F - 48.2 °F 67% 30.21 in 10.0 mi ENE 8.1 mph - N/A   Overcast
9:35 PM 59.4 °F - 48.6 °F 67% 30.21 in 10.0 mi ENE 6.9 mph - N/A   Overcast
9:55 PM 59.2 °F - 49.1 °F 69% 30.22 in 10.0 mi East 4.6 mph - N/A   Overcast
10:15 PM 59.2 °F - 49.3 °F 70% 30.21 in 10.0 mi ENE 6.9 mph - N/A   Overcast
10:35 PM 59.2 °F - 49.5 °F 70% 30.21 in 10.0 mi ENE 3.5 mph - N/A   Overcast
10:55 PM 59.0 °F - 49.5 °F 71% 30.21 in 10.0 mi ENE 3.5 mph - N/A   Overcast
11:15 PM 58.8 °F - 49.6 °F 72% 30.21 in 10.0 mi NE 3.5 mph - N/A   Overcast
11:35 PM 57.2 °F - 50.0 °F 77% 30.20 in 10.0 mi NE 3.5 mph - N/A   Overcast
11:55 PM 57.2 °F - 50.0 °F 77% 30.20 in 10.0 mi NE 3.5 mph - N/A   Overcast